Wind_Speed
8 8 8 8 7 7 7 7 7 7 6 6 5 5 4 4 3 3 2 1 1 3 4 5 6 7 8 9 10 12 13 13 14 15 16 16 15 14 15 14 14 13 13 12 11 10 10 9 8 6 5 5 7 7 6 7 8 9 7 6 7 6 9 15 16 14 11 11 12 12 11 9 8 7 6 6 5 5 4 5 6 6 7 7 7 7 9 8
9 8 8 8 8 8 8 8 7 7 7 6 6 5 5 4 4 3 3 2 1 1 2 3 5 6 7 8 9 11 12 13 14 15 15 15 15 15 15 14 14 14 13 13 12 11 11 10 10 8 7 7 9 8 7 7 8 9 9 8 7 5 6 12 16 15 11 11 12 12 11 10 9 7 6 5 5 4 3 3 7 9 9 8 7 8 9 9
9 9 9 8 8 8 8 8 8 7 7 6 6 5 5 4 4 4 3 2 1 1 1 1 3 5 6 7 8 10 12 14 15 15 15 14 15 15 15 15 15 15 14 14 13 13 12 12 12 11 9 9 9 8 7 7 7 8 8 8 7 5 5 9 14 16 12 10 12 12 11 11 10 9 8 6 5 4 3 3 6 9 8 7 7 8 9 10
9 9 9 9 9 9 9 8 8 7 7 6 6 5 5 5 4 4 3 2 2 1 1 1 1 2 5 7 8 9 11 13 14 15 14 14 14 14 14 14 15 15 15 14 14 13 12 13 13 12 11 10 9 7 6 6 6 6 6 6 5 4 4 6 10 15 14 11 12 13 12 12 11 10 9 7 6 4 3 3 5 6 5 4 6 8 11 12
9 9 9 9 9 9 9 8 8 8 7 7 6 5 5 4 4 3 2 2 2 2 2 1 1 2 3 6 8 9 10 10 12 14 14 14 13 13 14 14 15 14 15 15 15 14 13 12 13 13 12 11 9 7 5 6 6 5 4 4 4 3 4 5 7 11 14 14 13 14 14 14 13 12 10 8 6 3 2 4 7 7 4 3 5 9 12 12
9 9 9 9 9 9 9 9 9 8 8 7 6 5 4 4 3 2 2 2 2 2 2 2 1 2 3 5 7 8 9 8 10 12 13 13 13 13 13 14 14 14 15 16 16 15 14 12 12 13 12 10 9 7 7 7 6 4 3 3 3 3 4 5 6 8 11 14 16 16 15 15 15 14 12 10 8 4 2 5 8 9 7 6 7 9 11 10
9 9 9 9 9 9 9 10 9 9 8 7 6 5 5 4 3 3 2 2 2 2 1 2 2 2 3 4 5 7 8 7 8 10 11 12 13 13 13 14 14 14 15 16 16 16 13 12 12 13 11 11 10 9 8 7 6 4 3 2 3 3 4 5 6 7 8 11 15 17 18 17 17 16 14 12 9 7 5 6 9 9 8 10 10 10 10 9
8 8 9 9 9 10 10 10 10 10 9 8 7 6 5 5 5 5 4 3 3 2 2 1 2 3 3 4 5 6 6 6 7 9 10 11 12 13 13 14 14 15 15 15 16 16 13 11 12 12 11 11 11 9 8 7 6 4 2 3 3 3 4 4 5 7 9 11 14 18 20 20 18 17 15 13 10 9 8 8 11 10 10 13 12 10 10 9
8 8 9 9 9 10 11 11 11 10 9 8 7 6 6 6 6 6 6 5 4 4 3 2 3 4 4 5 5 5 6 7 7 8 9 11 12 13 13 13 14 15 15 15 15 15 12 11 13 13 11 11 11 9 7 6 5 4 4 4 4 4 4 5 7 8 10 13 15 18 20 21 21 19 17 15 12 10 9 9 12 12 13 15 13 11 11 9
7 8 8 9 10 11 11 11 10 10 9 8 7 6 6 7 8 8 7 7 7 7 6 5 4 4 5 5 6 5 6 8 8 9 10 11 11 12 13 13 13 15 16 15 14 13 11 12 14 14 12 11 10 9 7 5 5 5 5 6 5 5 5 6 7 9 11 13 16 18 20 21 23 21 19 17 13 12 11 10 12 14 15 15 13 12 11 10
7 7 8 9 9 11 11 11 10 9 8 8 7 7 8 9 9 8 8 9 9 9 8 7 6 5 5 5 5 5 6 7 8 10 11 11 11 10 12 13 13 14 16 16 14 12 11 14 16 14 12 11 9 9 7 5 6 7 7 7 6 5 5 7 9 9 11 12 14 18 19 22 24 24 22 18 14 13 12 11 13 15 16 16 14 13 12 11
6 7 7 8 9 10 10 9 9 8 8 8 7 7 9 10 9 8 9 10 10 10 10 9 8 7 6 5 4 4 4 6 8 9 10 11 10 9 10 12 13 13 14 15 14 12 12 16 17 14 12 11 10 7 6 6 7 8 8 7 5 5 7 9 10 11 12 10 11 15 19 24 27 25 23 19 15 13 14 12 13 15 16 16 15 14 13 11
6 6 7 7 8 9 9 8 8 7 7 7 7 8 9 10 10 9 10 10 11 11 10 10 9 8 7 6 4 4 4 4 6 7 8 9 9 9 9 11 12 12 13 14 13 12 13 16 17 15 12 11 11 7 6 7 8 9 8 6 4 6 8 10 11 12 11 8 8 13 20 24 27 26 22 19 16 15 17 14 13 14 16 16 15 14 13 11
6 6 6 7 8 8 8 7 7 7 6 5 6 8 11 12 11 10 9 9 9 10 10 10 10 10 9 8 6 4 3 3 4 6 7 8 7 8 9 10 11 11 11 11 11 12 14 17 17 15 13 12 11 9 7 7 8 8 7 6 4 5 8 10 11 12 9 6 6 12 20 21 24 25 22 19 17 17 18 16 14 14 14 15 14 14 12 10
5 5 6 6 7 8 8 7 7 7 6 5 6 9 11 12 12 11 9 7 7 8 9 10 10 10 11 10 10 7 6 4 4 6 8 7 5 7 8 9 9 9 10 11 12 12 14 17 16 14 14 13 10 9 8 7 8 8 5 5 4 5 8 10 10 11 8 5 5 10 17 17 21 23 21 20 18 18 19 17 15 13 13 13 13 14 12 12
5 5 5 5 6 7 7 8 8 7 6 5 6 8 10 11 11 11 9 8 7 7 7 7 10 11 9 10 12 10 9 7 5 6 8 7 5 6 7 7 8 8 10 12 13 14 15 16 16 15 14 13 10 7 8 8 9 8 6 5 5 5 8 11 11 11 8 6 4 10 14 15 20 21 20 19 17 19 20 18 15 13 12 11 12 13 13 14
5 5 5 5 6 7 7 8 8 7 6 5 5 6 5 6 7 8 8 9 9 9 8 6 9 11 9 10 11 11 11 9 7 5 5 6 6 5 5 6 7 8 10 13 14 16 16 15 15 15 13 13 11 8 7 6 5 6 6 7 7 7 8 11 11 10 8 5 3 10 12 13 18 21 22 20 16 17 20 19 16 14 12 11 12 14 15 14
5 4 4 4 5 6 7 8 7 7 7 6 5 4 3 3 5 6 7 8 8 10 10 9 9 9 9 11 11 11 12 10 7 5 3 4 5 4 4 6 7 9 11 13 15 16 16 15 13 14 14 13 11 9 7 2 2 5 7 8 9 8 9 10 10 9 8 5 3 9 13 14 16 21 24 22 18 18 20 19 17 15 13 12 13 15 15 14
5 4 4 4 4 5 7 7 6 7 9 8 8 7 8 7 7 8 8 9 9 10 10 11 11 9 9 11 11 11 11 10 8 6 4 3 4 4 4 5 6 9 11 13 16 16 14 13 12 12 12 12 10 7 6 4 4 5 7 7 7 9 10 9 9 8 7 5 4 7 12 15 18 21 24 24 22 21 20 20 20 17 15 14 15 16 16 14
5 4 4 4 3 4 6 6 5 8 9 9 9 10 10 10 9 9 10 11 12 12 11 11 11 10 9 10 10 10 10 10 9 8 6 4 2 3 3 4 4 8 11 12 15 15 13 11 11 10 10 10 9 7 7 7 7 7 7 7 7 9 11 9 7 8 6 5 5 6 9 14 18 21 23 24 24 23 21 22 22 19 16 16 16 17 16 15
6 4 4 3 2 3 5 4 5 7 8 9 8 8 8 8 9 10 10 11 11 11 11 12 11 10 10 9 9 9 9 10 10 10 10 7 4 2 2 2 3 6 10 12 13 14 12 10 9 11 11 9 9 9 8 8 9 10 10 10 11 12 12 9 6 7 7 5 6 7 8 12 16 20 23 24 25 24 23 24 22 18 17 16 17 18 17 18
6 4 4 3 2 2 4 4 4 6 7 7 7 6 6 6 8 9 10 10 10 10 10 10 11 11 11 9 9 10 9 10 12 13 13 12 9 5 3 2 1 2 7 11 11 9 8 9 11 13 13 12 10 9 9 10 11 12 13 13 13 13 11 9 7 7 7 6 7 7 7 9 13 15 20 23 21 18 20 24 22 17 17 17 17 18 20 22
6 5 4 3 1 1 3 3 4 5 5 6 6 6 6 6 7 8 9 9 10 11 11 10 10 10 11 10 11 11 11 12 13 13 13 13 10 7 6 6 5 4 1 4 8 8 7 8 10 12 14 14 13 11 10 11 12 14 16 15 15 14 11 9 9 9 7 7 7 7 7 9 11 12 16 20 18 15 19 24 22 19 18 17 16 17 21 24
6 5 4 3 1 2 4 4 4 4 5 5 5 6 6 6 6 6 7 8 8 9 9 10 10 10 11 11 11 10 10 12 12 11 11 10 10 10 10 9 8 8 6 3 1 5 6 7 7 8 11 14 15 16 15 13 13 15 17 18 19 17 13 11 11 11 8 8 8 7 7 10 13 13 15 19 19 19 22 24 23 21 20 19 18 19 23 23
6 5 4 3 2 2 4 5 5 4 4 4 4 6 5 6 5 5 6 6 6 6 5 6 8 9 9 10 10 10 9 9 9 9 10 8 8 9 9 8 7 6 5 5 4 2 1 4 5 5 6 9 12 16 17 16 15 17 19 21 21 19 17 16 14 11 8 8 9 6 6 7 10 14 17 19 20 22 24 26 26 23 21 22 21 22 24 23
5 5 4 4 2 3 5 6 6 5 5 4 4 4 4 4 5 6 6 6 5 5 5 4 4 6 8 8 8 8 8 8 7 6 7 7 6 6 7 6 5 5 5 6 4 2 2 1 1 4 5 6 9 12 15 17 16 17 20 21 20 17 15 15 13 9 6 6 8 7 6 7 12 14 16 20 22 21 24 29 30 27 24 24 24 24 25 24
5 5 4 4 3 4 5 6 7 7 6 5 4 3 2 2 3 3 4 4 3 3 5 5 4 6 7 7 6 6 6 6 6 5 5 5 4 3 4 4 4 5 6 6 4 3 2 0 1 3 5 6 8 10 12 16 16 17 21 21 18 13 10 11 11 8 7 8 8 8 9 9 14 15 14 19 24 23 25 29 32 31 29 26 25 25 25 24
6 5 5 4 3 4 5 7 9 8 7 5 4 3 2 2 2 1 2 1 1 3 4 4 4 6 6 5 5 5 6 4 5 5 4 3 3 2 2 3 2 3 5 5 4 4 3 1 1 2 5 7 8 9 10 13 16 18 20 19 16 12 11 12 10 7 8 9 8 9 10 7 12 16 14 15 24 28 28 30 31 33 33 29 27 26 26 24
7 5 5 4 4 5 7 8 10 10 8 6 4 2 2 3 3 2 2 1 1 2 3 3 3 5 5 4 4 3 4 4 4 4 3 3 3 2 2 1 0 0 2 4 3 5 5 3 3 3 5 7 7 6 8 12 16 18 18 17 14 12 11 10 8 6 7 8 8 10 11 7 10 19 18 16 22 25 24 29 32 32 33 32 29 27 26 25
8 5 5 4 4 5 7 8 10 11 10 7 4 2 2 4 4 2 2 1 2 2 3 3 3 4 4 4 4 2 2 3 3 3 3 3 2 3 2 1 2 2 1 1 2 5 6 3 1 1 2 5 6 5 6 10 14 15 15 14 12 10 8 8 7 6 6 6 7 9 11 8 7 15 16 13 14 13 13 19 27 31 33 34 32 29 28 27
9 6 5 5 5 6 7 8 10 12 10 8 4 3 3 4 3 1 1 1 2 3 3 2 3 2 3 3 3 3 2 3 3 3 4 3 2 4 4 2 3 3 2 1 1 2 2 2 4 2 1 4 4 4 5 7 10 12 12 12 9 4 2 3 4 5 5 3 2 3 7 9 10 12 13 11 11 11 11 13 16 21 28 33 33 32 30 29
9 7 5 5 5 6 7 8 10 12 12 8 5 4 4 3 3 2 2 1 2 3 2 3 4 2 3 3 2 2 2 2 2 3 5 3 2 3 3 2 4 4 1 1 1 1 4 5 5 3 3 3 3 4 4 6 8 10 12 13 8 4 3 1 3 4 6 3 1 3 4 8 16 19 17 16 15 14 14 14 13 14 19 26 32 33 30 30
10 7 5 5 5 5 6 7 10 12 12 9 6 6 4 3 3 3 3 2 1 1 1 3 5 4 4 3 1 3 2 1 2 3 6 5 1 3 4 2 4 4 2 1 1 1 5 3 3 4 6 6 4 5 5 6 9 13 15 15 11 5 2 2 2 4 5 3 3 5 5 8 16 16 12 10 9 9 11 14 15 14 15 18 25 31 31 29
10 7 5 5 5 5 6 8 10 11 12 10 7 6 5 5 4 4 3 2 2 2 2 5 6 6 6 4 3 3 1 1 3 5 6 3 3 5 7 4 3 4 3 2 3 3 2 0 4 6 7 7 6 5 6 4 6 13 16 14 13 11 7 3 4 5 2 3 3 5 5 6 7 5 8 10 10 9 8 10 13 15 15 15 20 28 32 30
10 7 5 5 6 6 7 8 9 11 13 11 8 7 7 6 5 5 4 4 4 3 4 7 7 5 6 5 4 3 1 1 4 5 4 4 5 5 8 7 4 5 4 2 4 5 4 4 6 6 6 6 6 6 7 4 5 11 14 12 12 12 10 5 6 6 2 4 4 5 8 11 10 10 16 17 16 14 11 9 10 13 16 17 20 26 33 33
9 7 5 6 7 7 8 9 9 11 13 12 9 8 8 7 6 7 6 4 4 4 5 7 7 6 5 5 4 2 1 1 3 3 3 5 5 4 5 6 6 7 6 5 5 4 3 4 4 4 6 5 5 5 5 6 6 8 12 13 11 9 9 6 4 4 3 3 3 5 10 14 14 12 12 10 10 11 11 10 9 9 13 17 20 23 29 35
9 7 6 6 7 8 9 9 9 12 14 12 10 8 8 8 7 6 6 4 4 4 5 6 6 6 6 5 4 3 2 2 3 2 3 2 3 4 4 5 6 7 8 6 5 5 3 1 1 3 6 5 3 2 2 3 5 7 10 13 11 7 7 4 3 4 4 4 4 6 10 11 10 9 10 9 6 5 6 7 8 9 10 15 19 21 23 30
10 7 6 7 8 9 9 9 10 13 15 14 11 8 8 8 7 6 5 5 4 3 4 5 5 6 6 5 5 4 3 2 2 2 2 3 3 4 4 5 6 6 7 6 5 6 5 1 2 3 4 4 3 1 2 3 4 9 8 11 11 7 5 3 2 3 4 4 3 4 8 8 7 11 15 13 8 6 8 9 8 8 9 11 12 16 22 27
9 7 6 8 8 9 10 10 11 14 16 15 12 10 9 9 8 7 7 5 5 4 4 5 6 7 6 5 5 5 4 3 1 0 1 3 3 2 2 3 5 6 6 7 7 7 6 4 4 5 4 4 5 3 0 3 2 6 6 9 12 8 6 4 1 1 2 3 2 3 5 3 6 13 17 13 9 9 10 10 8 6 8 9 4 6 21 29
9 7 7 7 8 9 10 10 11 14 16 15 14 11 10 10 9 9 9 7 6 6 5 6 6 7 7 6 5 5 4 3 3 2 2 2 3 1 1 2 4 5 6 7 8 8 7 5 5 6 5 3 2 1 3 5 5 3 3 5 6 6 7 6 4 2 3 2 1 2 2 3 9 16 18 14 10 7 7 8 8 6 7 11 5 3 14 24
8 7 7 7 8 9 10 10 11 13 15 16 15 13 12 12 10 9 10 9 8 6 6 7 6 7 8 6 5 5 5 5 4 4 4 3 3 2 2 0 2 4 5 6 7 8 7 6 5 4 2 3 6 4 4 5 6 6 5 5 4 2 4 5 5 5 5 4 2 1 2 5 11 16 16 14 10 5 4 5 6 5 6 11 10 6 7 14
8 9 9 8 9 9 10 10 11 13 15 15 15 14 12 13 12 10 10 11 11 8 6 7 8 8 8 7 7 6 6 6 6 5 5 4 3 3 2 2 3 5 6 6 7 9 8 6 4 3 1 6 8 6 4 4 3 5 7 7 7 6 1 2 3 4 4 5 4 2 2 6 11 13 12 13 10 4 2 1 2 4 5 10 12 10 9 12
9 10 11 11 11 11 10 10 11 13 16 16 15 14 12 12 12 11 10 11 12 11 9 8 8 8 8 8 7 7 7 7 6 6 5 4 4 4 3 4 5 6 7 6 7 8 7 4 4 4 0 6 8 6 5 4 3 1 4 7 9 10 6 0 4 5 3 4 4 2 2 6 10 12 9 10 9 4 3 2 2 2 4 8 12 14 14 14
10 12 14 15 14 14 12 12 11 13 15 15 15 14 12 12 12 12 12 11 11 12 11 10 9 8 8 8 9 10 9 8 7 7 6 6 4 4 4 5 7 8 8 7 7 7 6 4 3 3 1 2 5 5 5 4 5 6 6 2 7 11 10 6 1 6 4 3 5 3 3 7 13 17 13 8 7 4 3 4 5 5 4 7 11 13 13 14
10 12 16 18 18 17 16 15 14 14 15 15 15 14 13 12 11 12 12 12 13 14 13 11 10 10 10 9 10 11 11 9 7 6 6 6 6 5 5 6 7 8 9 8 8 8 7 5 3 2 2 1 2 4 7 8 8 9 10 8 3 6 10 11 7 1 3 5 5 5 7 11 17 18 14 8 4 3 3 4 5 7 7 7 9 11 12 14
12 12 14 18 20 20 20 19 18 17 17 16 15 15 14 13 12 11 13 13 13 15 16 13 11 11 12 12 12 12 11 10 8 7 6 7 7 6 6 7 8 10 10 9 9 7 6 5 4 4 4 4 4 4 6 9 11 10 9 10 8 4 4 10 10 6 4 6 7 7 9 14 18 16 12 7 3 2 3 5 5 6 7 7 8 9 11 13
13 12 13 16 18 20 21 22 20 19 18 17 17 16 15 15 12 11 12 12 12 14 16 15 13 12 12 12 11 12 12 10 9 9 8 9 9 8 9 10 11 12 12 10 8 7 7 7 6 6 6 5 5 5 5 7 10 9 8 9 10 9 6 9 11 11 11 6 6 7 7 13 18 15 8 5 1 2 4 5 4 5 6 6 6 7 9 11
14 13 13 15 17 17 19 21 22 21 20 19 18 17 16 15 14 11 10 10 11 13 15 15 15 15 13 11 10 12 12 12 11 11 11 11 11 10 10 11 10 10 9 8 7 7 8 9 7 7 7 6 5 5 5 6 7 7 8 10 12 13 11 9 11 14 14 7 3 5 5 11 17 14 5 1 2 3 4 6 6 5 5 5 5 5 7 9
14 14 14 16 18 18 18 18 20 21 21 20 19 19 18 16 15 13 11 9 10 12 14 15 14 15 13 11 11 11 12 11 12 12 11 12 12 11 9 8 6 6 5 7 7 7 8 8 7 6 7 6 5 6 5 5 4 4 7 8 11 12 13 13 12 13 14 11 7 3 2 7 11 11 6 3 3 4 3 6 7 6 5 4 4 4 5 6
13 14 14 15 17 19 20 19 19 19 19 20 20 20 19 18 16 14 12 11 10 11 14 15 13 14 14 12 11 11 10 9 9 9 10 11 11 9 7 5 4 2 2 5 6 5 6 6 6 6 6 6 5 6 6 5 5 5 7 7 8 9 10 13 14 12 12 12 10 5 1 4 7 8 8 5 2 5 5 8 8 6 6 5 4 3 3 4
12 13 14 14 15 17 19 21 21 20 20 19 19 19 19 18 17 15 13 12 12 12 14 14 14 14 14 14 13 11 9 8 8 9 10 12 11 8 5 5 5 3 2 3 5 4 5 6 6 6 5 5 4 5 7 7 8 9 9 9 9 9 8 10 13 13 12 12 10 7 5 4 7 8 8 6 2 3 6 9 8 7 7 6 6 6 5 4
12 13 13 13 14 14 16 18 20 22 23 22 21 19 19 17 17 16 14 12 13 13 14 14 14 14 15 15 12 9 8 9 9 10 11 12 12 9 6 5 6 6 3 2 3 4 4 4 5 5 4 4 4 5 6 6 7 8 9 9 9 9 9 8 9 12 12 11 10 8 6 5 7 10 9 6 4 4 7 8 8 9 9 8 8 8 7 6
Wind_Direction
48 49 50 49 49 49 51 53 56 58 59 59 61 61 61 58 56 61 69 108 191 217 221 221 217 216 217 218 219 218 217 217 218 218 219 220 219 216 213 213 214 212 212 212 211 206 200 191 188 185 169 154 146 136 112 94 82 83 84 91 121 151 179 190 195 194 199 205 207 207 204 201 202 205 202 199 206 222 251 249 225 197 182 186 187 204 214 194
47 50 53 55 55 56 56 56 57 57 58 57 57 58 59 59 59 58 58 64 85 171 205 217 216 213 211 211 214 216 215 216 217 218 218 217 216 214 210 210 211 210 209 210 209 206 199 188 185 187 177 162 156 146 123 106 93 91 87 87 104 124 163 186 196 198 203 205 208 215 215 210 209 219 227 220 221 240 270 250 209 182 173 184 182 190 201 184
47 51 55 58 59 59 59 58 57 55 53 51 49 49 49 53 56 56 56 55 60 87 132 196 212 212 208 206 208 211 213 214 218 218 217 216 215 215 210 208 210 208 206 207 207 206 200 188 185 187 182 171 163 150 130 112 98 93 89 91 100 110 150 180 196 204 212 214 213 222 225 222 218 219 229 237 237 248 279 259 214 189 174 177 184 186 185 177
48 52 56 58 58 57 56 55 54 52 48 46 43 41 41 42 46 49 51 46 43 53 71 118 188 207 203 203 203 207 210 213 218 219 216 215 215 213 210 209 209 207 206 207 206 206 204 195 189 187 184 174 160 148 135 120 107 101 98 104 109 114 144 171 193 206 217 225 225 227 231 233 232 229 231 235 237 265 302 247 210 192 175 169 188 182 175 175
48 51 53 53 53 52 49 48 46 44 40 39 36 33 33 32 36 36 35 36 32 37 54 83 136 187 193 198 201 206 208 210 216 218 215 214 213 211 210 209 208 206 205 207 207 206 204 199 194 190 186 171 152 148 150 141 129 126 127 129 134 139 152 173 196 210 218 227 231 232 235 239 241 240 238 235 234 267 316 216 186 172 180 178 183 177 173 177
46 47 48 46 46 44 41 38 35 32 28 26 24 23 24 24 26 23 16 18 20 27 41 60 91 157 181 190 197 205 205 206 215 218 216 214 212 210 210 210 209 205 204 207 208 207 202 197 197 194 186 165 153 166 176 171 158 156 164 156 169 174 175 193 204 214 222 229 234 236 237 238 241 244 241 237 234 219 181 195 177 166 181 175 169 175 180 180
42 43 41 40 38 37 34 30 26 23 21 19 19 19 21 21 23 30 24 12 19 23 30 60 83 130 164 175 184 198 205 212 219 219 218 215 212 211 211 211 210 207 205 207 207 208 202 193 196 195 181 163 165 182 187 188 181 174 187 180 197 203 204 217 220 222 227 234 237 238 238 236 236 239 240 240 237 213 187 192 177 166 177 169 164 177 186 186
38 38 36 33 31 30 27 24 22 22 23 24 25 28 29 30 34 41 43 38 41 41 44 79 103 120 141 157 171 186 197 207 213 214 217 217 214 212 212 212 212 209 207 208 208 210 202 188 191 188 177 170 175 187 190 191 193 189 196 192 199 211 225 241 247 243 240 240 239 238 237 236 235 234 234 237 238 215 193 194 184 170 173 170 165 179 190 191
34 33 31 28 26 26 23 22 24 27 30 32 32 35 37 41 45 50 58 60 61 61 61 78 110 128 136 146 157 168 181 188 194 205 215 217 216 214 214 215 214 211 210 211 211 211 201 183 183 181 179 181 181 191 194 191 199 192 194 211 209 216 238 262 270 265 255 247 243 239 236 236 235 231 229 228 231 218 196 194 190 175 172 173 168 178 194 194
28 29 27 25 24 23 22 24 28 33 35 36 35 37 41 47 54 60 69 72 72 72 71 74 90 116 125 135 140 148 173 181 186 200 213 218 217 215 216 217 216 213 211 211 212 210 193 175 179 180 182 187 187 199 203 194 206 204 210 228 228 236 259 276 278 275 268 257 247 240 233 233 233 228 227 226 225 215 197 193 188 175 174 176 172 178 193 195
21 24 23 23 23 22 23 26 30 36 38 37 35 39 45 52 60 71 79 81 82 79 75 72 72 87 106 126 133 141 177 191 196 206 213 217 219 218 218 219 218 215 211 210 209 204 184 172 177 180 186 193 194 206 216 211 212 219 232 243 245 263 289 297 293 290 283 268 252 241 231 228 227 224 223 225 225 209 191 188 181 173 176 178 176 180 191 197
15 20 21 22 23 23 25 27 30 36 40 39 38 44 51 55 64 82 92 88 85 80 76 73 68 73 82 97 128 150 185 203 210 215 219 221 224 222 220 219 219 218 213 209 207 197 180 175 178 180 187 199 202 210 226 226 224 231 240 247 257 284 307 308 305 307 299 277 254 240 228 223 219 218 218 221 225 203 181 181 175 170 176 179 179 183 192 197
12 16 18 23 24 25 27 27 28 32 39 43 47 55 59 60 68 91 104 93 83 79 73 70 67 67 69 69 98 143 172 197 211 217 219 224 230 228 222 221 220 219 215 210 206 192 179 180 184 186 192 201 206 209 220 226 229 233 235 240 270 302 315 316 315 319 314 291 263 227 218 220 214 212 213 217 222 198 180 180 171 166 177 181 180 186 193 193
9 13 16 23 24 26 28 26 25 26 32 45 61 69 69 68 71 88 106 97 80 73 66 65 64 65 65 59 65 93 118 155 188 191 194 207 222 224 222 222 220 220 215 207 203 196 188 187 188 190 196 203 207 209 214 222 224 227 233 243 274 304 313 323 326 329 326 308 284 222 214 218 210 208 211 216 220 197 182 182 173 165 175 183 184 190 194 189
3 11 14 21 24 27 29 25 22 22 26 46 79 83 76 74 74 78 91 88 71 62 59 59 60 59 57 56 59 59 65 89 142 160 167 179 201 213 214 218 217 217 211 200 197 197 194 192 189 191 197 202 206 211 217 224 225 227 238 255 278 293 309 326 332 335 331 313 287 215 212 212 204 207 214 217 215 195 185 185 179 169 172 183 190 195 194 190
358 9 11 17 24 28 30 27 25 26 29 49 94 96 80 75 76 74 73 68 57 52 55 58 63 62 53 55 60 60 66 81 108 144 162 161 168 192 200 209 214 211 204 196 195 195 193 190 188 191 196 201 208 212 214 226 234 236 242 256 283 297 315 330 335 338 334 318 270 203 201 203 199 204 213 215 209 197 191 189 186 181 178 186 195 198 196 195
351 4 7 13 24 32 36 33 31 39 44 58 107 120 88 70 76 75 68 63 57 56 58 63 70 67 58 58 59 60 68 77 87 110 158 163 163 178 186 199 207 203 195 193 196 195 192 188 188 193 195 199 209 211 206 223 252 269 276 271 286 307 322 332 335 334 331 325 252 205 199 199 198 200 206 210 211 207 201 195 195 194 189 195 200 200 200 198
344 358 3 10 25 39 46 43 46 59 64 71 99 131 127 95 85 78 70 66 64 66 66 68 77 73 60 59 59 58 62 68 78 87 122 165 174 174 175 189 199 197 191 191 193 193 193 192 190 195 199 202 211 213 205 219 322 321 311 287 288 308 319 329 333 331 328 326 254 213 211 207 201 202 207 213 218 219 213 206 205 200 195 203 204 201 202 199
337 350 357 8 26 47 58 60 66 74 75 78 89 103 106 102 93 85 81 79 78 79 73 66 72 74 65 60 58 55 54 58 66 76 103 147 170 176 184 190 193 192 189 189 189 192 196 197 195 196 202 210 220 224 219 251 294 313 321 299 294 309 312 318 322 322 326 320 280 225 222 218 207 206 211 218 221 223 220 211 205 198 195 203 202 199 201 196
332 342 354 5 27 56 73 78 85 88 84 84 94 101 103 103 98 91 88 89 85 82 79 73 71 71 67 59 52 49 47 52 60 67 83 105 142 178 195 190 190 191 191 190 191 197 200 198 202 203 208 219 230 240 239 251 269 284 302 301 301 307 309 314 312 312 318 309 290 254 238 231 220 213 215 220 222 222 220 210 203 196 192 198 196 196 198 190
328 335 346 0 26 68 91 97 102 102 92 86 94 100 107 112 107 98 93 93 91 86 83 79 76 72 67 61 53 51 50 54 63 68 69 66 69 120 165 171 190 197 198 194 193 203 208 207 210 208 213 224 232 246 254 258 267 274 280 286 291 296 307 314 311 310 310 298 287 276 255 242 234 224 220 221 221 223 217 206 202 195 189 195 194 194 194 186
324 328 337 351 20 91 116 117 113 110 98 91 98 103 113 122 115 107 101 98 95 94 91 83 78 71 67 64 59 59 62 67 72 73 72 66 64 81 108 113 151 200 213 208 202 209 220 228 225 217 219 224 231 246 260 263 263 267 273 280 285 291 308 322 325 319 304 294 292 286 265 244 239 230 222 220 220 223 214 204 203 197 191 195 194 192 192 188
322 321 326 339 357 141 149 144 129 117 104 96 103 109 115 129 131 120 112 107 101 98 94 87 82 75 69 68 66 69 76 80 82 78 75 75 73 80 86 80 81 71 58 218 216 222 236 245 237 231 230 230 237 245 256 266 262 258 263 271 276 281 295 313 323 325 299 278 287 292 278 252 240 227 212 211 216 222 217 212 208 200 196 196 194 190 192 192
318 313 316 324 321 176 175 172 154 135 119 104 106 113 110 120 133 131 124 119 107 100 95 88 84 81 77 72 71 77 82 81 81 74 68 76 85 85 84 81 81 75 62 65 229 246 251 258 248 240 242 241 244 247 252 264 267 258 253 259 268 274 285 294 303 316 302 272 277 294 288 263 248 234 209 204 215 220 218 221 216 205 197 194 192 190 191 194
314 307 304 308 295 194 192 189 183 166 139 124 118 115 108 113 113 114 126 123 108 100 94 92 88 83 79 73 72 76 79 77 77 68 55 67 95 91 82 82 83 75 55 51 40 5 272 264 256 242 248 245 244 247 249 253 263 262 251 252 264 270 277 284 292 304 298 274 274 278 282 277 262 244 219 208 218 224 222 225 222 213 203 195 190 188 188 192
310 302 295 297 276 209 202 194 195 192 163 150 141 126 116 119 108 98 104 101 103 95 67 72 86 79 76 74 73 71 71 72 71 68 53 66 99 91 79 84 79 62 39 38 43 68 110 92 240 226 241 245 245 247 245 245 252 256 251 251 261 269 271 280 292 297 273 261 268 252 247 280 285 267 234 215 217 224 226 227 225 219 211 200 192 186 186 189
309 298 290 287 262 217 208 198 196 193 175 163 156 150 147 151 141 112 100 88 95 78 45 49 67 80 84 77 71 63 60 64 62 61 49 64 99 85 80 89 63 49 41 33 36 69 103 139 185 226 250 257 258 257 250 248 244 246 251 252 258 265 270 282 296 290 259 263 273 248 239 266 281 278 253 226 220 219 222 226 226 223 218 208 197 189 186 185
311 298 286 279 259 219 207 203 197 191 181 171 158 157 166 191 208 173 115 88 62 52 32 39 70 93 101 88 75 63 57 57 52 53 34 46 93 85 79 96 61 45 38 20 9 30 31 321 242 244 261 266 269 264 248 240 237 241 247 249 255 261 268 283 290 276 261 271 270 243 235 252 271 275 273 243 228 225 224 224 226 226 223 218 207 196 190 186
312 298 282 271 257 220 209 208 201 192 183 173 157 149 157 184 185 127 111 92 42 52 24 32 105 122 122 106 87 57 52 49 38 42 32 42 73 69 52 75 83 38 28 19 356 352 354 326 284 273 272 274 279 265 233 221 226 238 242 244 252 253 264 292 297 274 266 263 254 242 238 241 270 277 276 252 236 236 234 228 226 226 226 224 218 208 198 190
313 301 281 264 251 223 211 211 202 192 184 177 163 142 154 175 168 120 109 52 34 43 22 43 129 146 144 119 89 56 41 33 24 16 0 10 17 352 345 321 291 276 301 21 0 341 341 332 307 314 292 283 285 268 234 219 221 232 240 239 238 236 257 305 306 270 264 257 246 248 247 239 268 285 278 260 254 264 262 241 230 227 226 226 224 218 209 199
317 303 281 261 251 229 214 211 201 193 188 184 172 150 141 151 154 130 162 113 54 45 33 87 129 139 167 146 98 90 81 53 45 5 337 329 330 338 341 339 327 310 273 196 321 344 15 67 87 95 319 299 290 265 233 224 218 223 234 228 214 201 248 312 289 242 245 256 177 206 236 227 236 270 289 296 302 299 283 264 248 237 231 227 224 220 216 209
320 304 282 262 252 233 217 211 203 196 193 190 185 171 150 141 148 134 140 141 62 38 48 130 142 139 162 147 100 131 127 62 46 3 352 350 351 353 348 0 358 338 287 168 253 200 150 109 80 71 11 353 308 277 244 220 207 208 219 212 185 99 65 249 257 246 245 247 172 175 188 218 244 269 293 298 295 289 278 270 264 256 244 233 225 220 218 215
320 304 282 262 250 235 220 212 205 199 193 191 194 186 172 167 157 134 132 137 87 44 87 151 148 150 168 165 117 149 159 8 346 335 345 347 15 40 33 16 16 19 38 95 38 182 177 159 54 39 24 13 333 289 252 220 207 204 206 201 183 132 92 223 238 252 250 238 238 227 208 243 263 279 303 305 295 286 276 266 256 252 249 240 230 223 218 217
319 302 280 258 243 231 219 211 206 199 191 188 192 191 190 186 168 150 151 146 139 141 164 163 150 150 170 182 170 156 170 0 8 345 344 6 114 81 63 60 40 47 59 83 57 48 145 212 358 14 15 1 343 302 260 244 217 209 207 206 200 182 166 189 237 241 234 115 144 185 202 243 255 269 309 313 306 295 283 268 253 242 237 236 233 228 221 217
318 301 279 252 237 227 219 213 206 196 189 186 186 190 193 188 173 165 160 148 152 154 159 161 157 162 174 174 165 154 163 30 23 3 9 84 112 88 68 65 55 54 57 57 48 48 73 59 23 14 8 349 334 305 264 238 207 209 207 207 208 196 185 207 240 232 188 130 149 191 238 260 262 279 299 299 293 290 287 283 267 247 234 228 230 229 223 217
317 302 279 249 235 227 219 214 205 193 189 185 185 191 191 182 172 173 172 160 155 153 167 175 175 184 181 165 166 161 124 83 29 27 86 94 87 85 75 65 57 53 46 45 51 50 64 69 56 36 22 359 325 310 257 218 200 207 211 208 209 210 207 214 226 211 198 202 216 239 258 274 281 289 298 296 298 300 286 281 283 264 239 229 230 229 224 218
315 303 279 250 235 227 220 213 202 193 189 186 188 194 189 177 170 172 175 172 159 151 167 181 186 197 186 164 178 190 143 95 26 60 133 112 79 99 100 72 57 45 37 41 45 36 30 91 106 38 30 22 346 344 315 250 205 197 212 212 207 211 211 201 187 201 222 240 244 252 265 286 298 294 289 286 300 330 314 288 277 264 239 230 233 232 227 221
313 302 276 251 236 228 222 213 201 194 191 190 194 195 187 183 185 186 182 188 194 180 174 181 187 196 188 173 184 185 162 137 44 62 141 161 128 101 91 76 57 37 28 27 20 18 14 337 305 340 3 12 345 302 356 341 210 197 205 205 204 214 213 192 182 215 243 249 241 268 279 294 308 299 299 295 274 280 321 317 288 265 230 226 244 236 218 211
309 297 270 252 240 231 224 215 203 196 195 195 197 195 191 195 202 207 206 209 213 210 204 196 192 194 189 179 178 175 171 173 167 41 124 163 161 100 69 77 61 41 26 21 12 7 4 351 325 320 326 323 309 278 18 33 188 201 200 197 206 220 217 203 180 352 286 245 231 301 294 319 342 321 319 322 298 281 308 319 298 269 216 209 263 236 201 196
300 288 266 253 241 232 224 216 204 198 198 198 199 198 198 199 204 213 220 223 223 224 220 209 201 200 199 192 184 185 195 205 214 227 207 199 224 245 118 89 61 43 25 14 5 2 6 4 340 331 336 306 265 131 102 88 93 118 138 164 188 208 216 222 228 262 285 255 211 293 292 0 349 330 329 337 332 310 314 315 294 266 202 195 208 206 194 196
285 271 254 245 237 230 223 215 205 200 200 200 199 200 204 205 203 211 223 230 238 241 222 210 211 207 205 213 216 211 219 226 225 222 221 244 252 210 178 214 22 23 12 3 359 359 359 359 352 351 13 154 159 142 124 101 79 66 69 81 86 127 206 222 227 231 248 254 223 220 281 330 328 324 332 343 343 332 317 310 291 266 198 188 198 199 198 208
267 253 244 238 232 230 224 216 210 202 200 201 201 202 207 210 208 210 221 232 241 243 226 216 222 219 214 225 231 226 234 240 231 224 230 251 257 236 244 297 330 346 348 347 353 353 345 345 0 9 150 174 170 158 145 129 93 57 52 56 50 39 50 204 216 218 231 250 245 219 257 296 307 314 337 351 344 318 256 302 301 267 206 185 191 193 196 209
255 241 237 234 230 230 227 222 218 208 202 203 204 204 207 212 214 215 219 229 236 236 229 223 224 224 221 227 239 241 240 237 230 227 232 233 239 254 279 302 311 323 332 332 339 343 336 337 0 2 275 199 201 189 162 165 199 256 20 40 47 35 21 338 218 226 239 245 224 195 245 272 297 309 327 348 339 301 206 160 118 184 202 185 187 192 196 204
251 237 233 233 231 231 232 233 228 216 210 210 208 208 211 215 218 219 217 221 227 224 223 222 219 225 232 237 246 247 243 241 236 228 226 225 234 258 278 292 299 310 316 313 317 322 318 323 350 358 8 206 220 222 211 205 207 218 244 319 40 37 28 27 247 228 234 231 208 194 243 276 298 307 309 315 320 294 214 174 135 139 163 175 184 194 200 205
250 239 231 232 233 233 234 239 238 231 224 220 215 214 216 220 225 225 221 222 225 221 220 220 220 232 245 247 245 243 242 244 241 229 225 234 248 261 269 282 290 298 300 297 302 304 299 306 311 296 313 283 231 243 246 239 227 221 225 235 284 22 28 22 15 337 229 242 233 221 245 275 293 305 312 304 284 275 235 195 152 140 148 161 177 192 203 209
249 244 234 231 233 235 236 238 241 240 235 228 223 221 220 223 228 231 231 232 230 224 221 221 226 236 242 243 243 241 236 234 234 235 240 249 259 267 276 284 285 282 280 281 287 286 278 282 272 254 271 267 252 278 273 243 233 233 227 224 233 254 356 1 6 11 324 279 256 246 248 265 284 301 318 315 268 210 206 197 173 155 156 164 177 190 205 215
246 245 237 229 229 233 236 237 239 241 238 233 230 227 226 226 225 226 233 236 230 222 219 221 230 236 237 240 244 239 232 230 234 240 246 255 265 272 277 284 286 282 274 267 262 259 262 261 243 240 253 252 255 281 276 237 228 238 247 245 243 239 260 323 345 352 344 314 250 254 245 252 275 294 314 321 304 164 175 175 169 166 164 170 184 196 209 216
245 241 236 228 225 227 231 234 237 240 239 235 233 232 231 230 227 224 229 232 224 217 215 219 229 237 239 245 248 241 235 233 238 245 253 263 269 273 277 283 290 287 270 247 238 245 257 253 234 234 246 248 262 270 252 235 232 249 272 278 276 261 249 278 316 329 338 342 275 270 240 238 264 278 281 298 72 111 146 149 149 156 160 171 189 206 220 224
245 240 235 230 227 227 229 231 234 238 240 239 237 236 235 236 235 233 231 230 225 218 216 221 228 233 239 246 247 244 243 242 248 258 268 275 272 267 272 279 283 282 255 228 230 240 249 245 229 230 240 243 253 251 241 244 245 268 297 301 296 284 260 254 278 306 322 336 344 331 196 218 249 259 253 239 93 89 124 140 143 148 152 162 180 198 219 229
248 243 239 236 233 231 231 231 233 236 238 240 240 239 239 240 241 239 236 236 234 224 220 226 231 234 242 249 246 247 254 257 267 279 287 288 276 260 263 265 243 243 224 208 217 234 250 247 225 221 236 238 241 242 240 254 267 277 297 305 302 301 281 256 260 283 304 321 336 341 294 221 227 237 249 238 119 80 108 130 138 150 157 162 164 165 186 209
251 247 244 242 240 238 236 235 235 236 238 239 240 240 241 242 243 242 239 239 241 234 225 227 234 239 245 247 247 252 259 260 272 285 291 288 270 248 257 255 220 202 174 184 211 241 259 247 217 206 226 233 233 242 242 256 280 280 279 288 288 289 290 267 255 262 278 297 312 309 298 253 206 211 237 235 183 98 116 123 126 135 142 143 138 133 145 169
254 252 250 247 246 245 244 241 239 239 240 241 241 241 241 243 243 242 238 234 238 239 230 223 225 233 240 245 249 255 257 258 271 281 285 279 261 243 250 252 227 220 216 197 227 245 248 241 212 202 233 249 232 239 251 263 282 282 276 285 286 279 282 274 252 248 254 273 292 288 280 268 217 209 219 206 165 142 130 121 119 122 124 128 127 128 140 156
Height
3161 3161 3160 3160 3160 3159 3159 3159 3159 3158 3158 3158 3158 3157 3157 3157 3156 3156 3156 3156 3156 3155 3155 3156 3156 3156 3156 3157 3157 3158 3158 3159 3159 3160 3160 3161 3163 3164 3165 3166 3167 3168 3169 3170 3171 3172 3173 3174 3175 3175 3176 3176 3176 3177 3177 3177 3176 3175 3175 3176 3176 3176 3177 3177 3178 3179 3179 3180 3181 3182 3183 3184 3185 3186 3187 3187 3187 3188 3188 3189 3189 3190 3191 3192 3192 3193 3195 3195
3161 3161 3161 3160 3160 3160 3160 3159 3159 3159 3159 3158 3158 3157 3157 3157 3156 3156 3156 3156 3155 3155 3155 3155 3155 3155 3155 3156 3156 3157 3157 3158 3158 3158 3159 3161 3162 3162 3164 3165 3166 3167 3168 3169 3170 3171 3172 3174 3175 3175 3176 3176 3177 3177 3177 3178 3177 3177 3176 3176 3176 3177 3177 3178 3179 3180 3180 3181 3182 3183 3184 3185 3185 3186 3187 3188 3188 3188 3189 3189 3189 3190 3191 3192 3193 3194 3195 3196
3162 3161 3161 3161 3161 3160 3160 3160 3160 3159 3159 3159 3158 3158 3157 3157 3156 3156 3156 3155 3155 3155 3155 3154 3154 3154 3155 3155 3156 3156 3156 3157 3157 3158 3159 3160 3161 3162 3163 3164 3165 3166 3167 3168 3169 3170 3172 3173 3174 3175 3176 3176 3177 3178 3178 3178 3178 3177 3177 3177 3177 3177 3177 3178 3179 3180 3181 3181 3182 3183 3184 3185 3185 3186 3187 3188 3189 3189 3189 3190 3190 3190 3191 3192 3193 3194 3195 3196
3162 3162 3162 3161 3161 3161 3161 3160 3160 3160 3159 3159 3158 3158 3157 3157 3156 3156 3156 3155 3155 3155 3154 3154 3154 3154 3154 3154 3155 3155 3155 3156 3156 3157 3158 3159 3160 3161 3162 3163 3164 3165 3166 3167 3169 3170 3171 3173 3173 3174 3175 3176 3177 3178 3178 3178 3178 3178 3178 3178 3178 3178 3178 3179 3179 3180 3181 3181 3182 3183 3184 3185 3185 3186 3187 3188 3189 3190 3190 3190 3191 3191 3192 3193 3194 3194 3195 3197
3163 3163 3162 3162 3162 3161 3161 3161 3160 3160 3160 3159 3159 3158 3158 3157 3157 3156 3156 3155 3155 3154 3154 3154 3154 3153 3153 3154 3154 3154 3155 3155 3156 3156 3157 3158 3159 3160 3161 3162 3164 3165 3166 3167 3168 3169 3170 3172 3173 3174 3175 3176 3177 3177 3178 3178 3178 3178 3178 3178 3178 3178 3179 3179 3179 3180 3181 3181 3182 3182 3183 3184 3185 3186 3187 3188 3189 3190 3190 3190 3191 3192 3193 3193 3194 3195 3196 3197
3164 3163 3163 3162 3162 3162 3161 3161 3161 3160 3160 3159 3158 3158 3157 3157 3156 3156 3155 3155 3155 3154 3154 3154 3153 3153 3153 3153 3154 3154 3155 3155 3155 3156 3157 3158 3158 3159 3161 3162 3163 3164 3165 3166 3167 3168 3169 3171 3173 3174 3175 3176 3177 3177 3177 3177 3177 3178 3178 3178 3178 3179 3179 3180 3180 3180 3181 3181 3181 3182 3183 3184 3185 3186 3187 3188 3189 3190 3190 3190 3191 3191 3192 3193 3194 3196 3197 3197
3164 3164 3163 3163 3162 3162 3162 3161 3161 3160 3160 3159 3158 3158 3157 3157 3156 3156 3155 3155 3155 3154 3154 3154 3153 3153 3153 3153 3153 3154 3155 3155 3155 3156 3157 3157 3158 3159 3160 3161 3162 3163 3164 3165 3167 3168 3169 3170 3172 3173 3175 3176 3176 3177 3177 3177 3177 3178 3178 3178 3178 3179 3179 3179 3180 3180 3180 3180 3181 3181 3182 3183 3183 3185 3186 3188 3189 3190 3190 3190 3191 3191 3192 3193 3194 3196 3197 3198
3164 3164 3164 3163 3163 3162 3162 3161 3161 3160 3159 3159 3158 3158 3157 3157 3156 3156 3155 3155 3155 3154 3154 3153 3153 3153 3153 3153 3153 3154 3154 3155 3155 3156 3156 3157 3158 3158 3159 3160 3161 3162 3164 3165 3166 3167 3168 3170 3172 3173 3174 3175 3176 3176 3177 3177 3177 3178 3178 3178 3178 3178 3178 3179 3179 3179 3179 3179 3180 3180 3180 3182 3183 3184 3186 3187 3189 3189 3190 3190 3191 3191 3192 3193 3194 3196 3197 3198
3165 3164 3164 3164 3163 3163 3162 3162 3161 3160 3160 3159 3158 3158 3157 3157 3156 3156 3156 3155 3155 3154 3154 3153 3153 3153 3153 3153 3153 3153 3154 3154 3155 3155 3156 3156 3157 3158 3159 3160 3161 3162 3163 3164 3165 3167 3168 3170 3171 3172 3173 3174 3175 3175 3176 3177 3177 3177 3177 3177 3177 3178 3178 3178 3178 3178 3178 3178 3178 3178 3179 3181 3182 3183 3185 3186 3188 3189 3190 3190 3191 3191 3192 3193 3194 3196 3197 3198
3165 3165 3164 3164 3163 3163 3162 3162 3161 3160 3160 3159 3159 3158 3157 3157 3157 3156 3156 3156 3155 3155 3154 3154 3153 3153 3153 3153 3153 3153 3154 3154 3154 3155 3155 3156 3156 3157 3158 3159 3160 3161 3162 3163 3165 3166 3168 3169 3171 3172 3173 3174 3175 3175 3176 3176 3177 3177 3177 3177 3177 3177 3177 3177 3177 3177 3177 3176 3176 3177 3178 3179 3181 3182 3183 3185 3187 3189 3190 3191 3191 3191 3192 3193 3194 3196 3197 3198
3165 3165 3165 3164 3164 3163 3163 3162 3161 3161 3160 3160 3159 3158 3158 3158 3157 3157 3157 3156 3156 3156 3155 3155 3154 3154 3154 3154 3154 3154 3153 3153 3154 3154 3154 3155 3156 3157 3158 3159 3160 3161 3162 3163 3164 3165 3167 3168 3170 3172 3173 3173 3174 3175 3175 3176 3176 3176 3176 3176 3176 3176 3176 3175 3175 3175 3175 3174 3174 3175 3177 3178 3179 3181 3182 3184 3186 3188 3190 3191 3191 3191 3192 3193 3195 3195 3197 3198
3166 3165 3165 3164 3164 3163 3163 3162 3162 3161 3161 3160 3159 3159 3159 3158 3158 3158 3157 3157 3157 3157 3156 3156 3155 3155 3154 3154 3154 3154 3153 3153 3153 3154 3154 3155 3156 3156 3157 3158 3159 3160 3161 3163 3164 3165 3167 3168 3170 3171 3172 3173 3174 3174 3175 3175 3175 3176 3176 3176 3176 3176 3175 3174 3174 3173 3173 3172 3172 3173 3174 3175 3176 3179 3181 3183 3185 3187 3189 3191 3191 3191 3192 3193 3194 3195 3197 3198
3166 3166 3165 3165 3164 3164 3163 3162 3162 3162 3161 3161 3160 3160 3159 3159 3158 3158 3158 3158 3158 3157 3157 3156 3156 3155 3155 3155 3154 3153 3153 3153 3153 3154 3155 3155 3156 3156 3157 3158 3159 3160 3161 3163 3164 3165 3167 3168 3169 3171 3172 3172 3173 3174 3175 3175 3175 3175 3175 3175 3175 3175 3174 3174 3173 3172 3171 3171 3170 3171 3171 3172 3175 3178 3180 3182 3184 3186 3188 3190 3191 3191 3192 3193 3194 3195 3197 3199
3166 3166 3165 3165 3164 3164 3163 3163 3162 3162 3162 3161 3161 3161 3160 3160 3159 3159 3159 3159 3159 3158 3158 3157 3157 3156 3156 3155 3154 3154 3153 3153 3153 3154 3154 3155 3156 3156 3157 3157 3158 3160 3161 3163 3164 3165 3166 3168 3169 3170 3171 3172 3173 3174 3174 3174 3175 3175 3175 3175 3175 3175 3174 3173 3173 3172 3171 3170 3170 3170 3170 3171 3174 3177 3179 3181 3183 3186 3188 3190 3191 3191 3192 3193 3194 3195 3197 3199
3166 3166 3166 3165 3165 3164 3164 3163 3163 3162 3162 3162 3162 3162 3161 3161 3160 3160 3160 3160 3159 3159 3158 3158 3157 3156 3156 3156 3155 3154 3153 3153 3153 3154 3154 3155 3156 3156 3157 3157 3158 3160 3161 3162 3164 3165 3166 3167 3169 3170 3171 3172 3173 3174 3174 3174 3174 3174 3175 3175 3174 3175 3174 3173 3173 3172 3171 3170 3169 3169 3170 3172 3174 3177 3179 3181 3182 3185 3187 3189 3191 3191 3192 3193 3194 3195 3197 3198
3166 3166 3166 3165 3165 3164 3164 3163 3163 3163 3162 3162 3162 3162 3162 3161 3161 3161 3161 3160 3160 3159 3159 3159 3158 3157 3157 3156 3156 3155 3154 3154 3154 3154 3155 3156 3156 3156 3157 3158 3158 3160 3161 3162 3163 3165 3166 3167 3169 3170 3171 3172 3173 3174 3174 3174 3174 3174 3175 3175 3174 3175 3175 3174 3173 3172 3171 3170 3169 3169 3171 3172 3174 3177 3179 3180 3182 3184 3186 3189 3190 3191 3192 3192 3193 3194 3196 3197
3166 3166 3166 3165 3165 3164 3164 3164 3163 3163 3163 3163 3163 3163 3162 3162 3162 3162 3162 3161 3161 3160 3159 3159 3158 3158 3158 3157 3156 3156 3155 3155 3155 3155 3156 3156 3157 3157 3157 3158 3159 3160 3161 3162 3163 3164 3166 3167 3169 3170 3171 3172 3173 3173 3174 3175 3174 3175 3175 3175 3175 3175 3175 3174 3173 3172 3171 3171 3171 3171 3171 3173 3174 3176 3178 3179 3182 3183 3186 3188 3190 3191 3191 3192 3193 3194 3195 3197
3166 3166 3166 3165 3165 3165 3164 3164 3164 3163 3163 3163 3163 3163 3162 3162 3163 3162 3162 3162 3161 3161 3160 3160 3159 3159 3159 3158 3157 3157 3156 3156 3156 3156 3156 3157 3157 3158 3158 3159 3159 3160 3161 3162 3163 3164 3166 3167 3169 3170 3171 3172 3172 3173 3174 3175 3175 3175 3175 3175 3175 3174 3174 3174 3173 3172 3172 3172 3172 3172 3172 3173 3175 3176 3178 3179 3181 3183 3185 3187 3189 3190 3190 3191 3192 3194 3195 3197
3166 3166 3166 3165 3165 3165 3165 3164 3164 3164 3163 3163 3163 3163 3163 3163 3163 3163 3163 3162 3162 3161 3161 3161 3160 3160 3160 3159 3159 3158 3157 3157 3157 3156 3157 3157 3158 3158 3159 3159 3160 3161 3162 3163 3164 3165 3166 3168 3169 3170 3171 3172 3172 3173 3174 3174 3174 3174 3175 3175 3175 3174 3174 3174 3173 3173 3172 3172 3172 3173 3173 3174 3175 3176 3177 3179 3181 3183 3184 3185 3187 3189 3189 3190 3191 3193 3195 3196
3166 3166 3166 3165 3165 3165 3165 3165 3165 3164 3164 3164 3164 3164 3164 3164 3164 3164 3163 3163 3163 3162 3162 3162 3161 3161 3161 3160 3159 3159 3158 3158 3157 3157 3157 3158 3158 3159 3160 3160 3161 3161 3162 3163 3164 3165 3166 3168 3169 3171 3171 3172 3172 3173 3173 3173 3174 3174 3174 3174 3174 3174 3174 3173 3173 3173 3173 3173 3172 3172 3173 3174 3174 3175 3176 3178 3180 3181 3183 3184 3186 3187 3188 3189 3191 3192 3194 3196
3166 3165 3165 3165 3165 3165 3165 3165 3165 3165 3164 3164 3165 3164 3165 3165 3164 3164 3164 3164 3163 3163 3163 3162 3162 3162 3161 3161 3160 3160 3159 3159 3158 3158 3158 3158 3159 3159 3160 3161 3161 3162 3162 3163 3164 3165 3167 3168 3169 3170 3171 3171 3172 3172 3173 3173 3173 3173 3173 3174 3174 3174 3173 3173 3173 3173 3173 3173 3172 3172 3172 3173 3174 3175 3176 3177 3178 3180 3182 3183 3185 3186 3187 3188 3190 3192 3194 3195
3165 3165 3165 3165 3165 3165 3165 3165 3165 3165 3165 3165 3165 3165 3165 3165 3165 3165 3165 3165 3164 3164 3163 3163 3163 3162 3162 3162 3161 3161 3160 3160 3159 3159 3159 3159 3160 3160 3161 3161 3162 3162 3163 3164 3165 3166 3167 3168 3169 3169 3170 3171 3172 3172 3172 3173 3173 3173 3173 3173 3173 3173 3173 3173 3173 3173 3173 3173 3172 3172 3172 3172 3173 3175 3175 3176 3178 3179 3181 3182 3184 3185 3186 3187 3189 3191 3193 3194
3165 3165 3165 3165 3165 3165 3165 3165 3165 3165 3165 3165 3165 3165 3165 3166 3166 3166 3165 3165 3165 3164 3164 3164 3163 3163 3163 3162 3162 3161 3161 3161 3160 3161 3160 3160 3161 3162 3162 3162 3162 3163 3163 3164 3165 3166 3167 3167 3168 3169 3169 3170 3171 3171 3172 3172 3173 3173 3173 3173 3173 3173 3174 3174 3173 3173 3173 3173 3172 3172 3172 3172 3172 3173 3174 3176 3177 3178 3180 3181 3183 3183 3184 3186 3188 3190 3191 3193
3165 3164 3164 3164 3164 3164 3164 3165 3165 3165 3165 3165 3166 3166 3166 3166 3166 3166 3166 3165 3165 3165 3165 3165 3164 3164 3164 3163 3163 3162 3162 3162 3162 3162 3162 3162 3162 3163 3163 3163 3163 3164 3164 3164 3165 3166 3166 3166 3167 3168 3168 3169 3170 3170 3171 3171 3172 3172 3172 3171 3171 3172 3173 3174 3174 3173 3173 3173 3172 3172 3172 3171 3171 3172 3173 3175 3176 3178 3179 3180 3181 3182 3183 3185 3187 3189 3190 3192
3164 3164 3164 3164 3164 3164 3164 3164 3165 3165 3165 3166 3166 3166 3166 3166 3166 3166 3166 3166 3166 3166 3165 3165 3165 3164 3164 3164 3164 3163 3163 3163 3163 3163 3163 3163 3163 3163 3164 3164 3164 3164 3165 3165 3165 3165 3165 3165 3166 3167 3168 3168 3169 3169 3170 3170 3170 3170 3170 3170 3170 3171 3172 3173 3173 3173 3173 3173 3172 3173 3172 3170 3169 3170 3172 3174 3175 3177 3178 3178 3179 3181 3182 3184 3185 3186 3189 3190
3164 3163 3163 3163 3163 3163 3164 3164 3164 3164 3165 3166 3166 3166 3166 3166 3166 3166 3166 3166 3166 3166 3166 3165 3165 3165 3164 3164 3164 3164 3164 3164 3164 3164 3164 3164 3164 3164 3164 3164 3165 3165 3165 3165 3165 3165 3165 3165 3166 3166 3167 3167 3167 3167 3168 3168 3169 3169 3169 3169 3169 3171 3172 3172 3172 3173 3173 3173 3172 3173 3173 3170 3168 3169 3171 3172 3173 3175 3176 3176 3177 3179 3181 3182 3183 3185 3187 3189
3163 3163 3163 3163 3163 3163 3163 3163 3164 3164 3165 3165 3166 3166 3166 3166 3166 3166 3166 3166 3166 3166 3166 3165 3165 3165 3165 3165 3165 3164 3165 3165 3164 3164 3164 3164 3164 3164 3165 3165 3165 3165 3165 3165 3164 3165 3165 3165 3165 3165 3166 3166 3166 3166 3166 3167 3167 3167 3167 3168 3169 3170 3171 3171 3172 3173 3172 3172 3172 3172 3172 3171 3168 3167 3169 3171 3172 3173 3173 3173 3175 3176 3179 3181 3182 3184 3186 3187
3162 3162 3162 3162 3162 3162 3162 3163 3163 3164 3164 3165 3165 3166 3166 3166 3166 3166 3166 3166 3166 3165 3166 3165 3165 3165 3165 3165 3165 3165 3165 3165 3165 3165 3165 3164 3164 3165 3165 3165 3165 3165 3165 3165 3164 3165 3164 3164 3164 3164 3164 3164 3164 3164 3165 3165 3165 3165 3166 3167 3168 3169 3171 3171 3171 3172 3172 3172 3171 3170 3171 3171 3166 3164 3167 3169 3169 3170 3170 3170 3172 3173 3176 3179 3181 3183 3184 3186
3162 3161 3161 3161 3161 3162 3162 3162 3163 3163 3164 3165 3165 3165 3165 3166 3166 3166 3166 3166 3166 3165 3165 3165 3165 3165 3165 3165 3165 3165 3165 3165 3165 3165 3165 3165 3165 3165 3165 3164 3164 3164 3164 3164 3164 3164 3164 3163 3163 3163 3163 3163 3163 3163 3162 3163 3163 3163 3165 3167 3167 3169 3170 3171 3171 3171 3172 3171 3169 3168 3170 3170 3165 3161 3163 3165 3165 3166 3166 3167 3169 3171 3174 3176 3179 3182 3183 3185
3161 3161 3161 3160 3161 3161 3161 3161 3162 3163 3164 3164 3165 3165 3165 3165 3166 3166 3166 3166 3166 3166 3165 3165 3165 3165 3165 3165 3165 3165 3165 3165 3165 3165 3165 3165 3165 3164 3164 3164 3164 3164 3163 3164 3164 3163 3163 3162 3162 3162 3162 3161 3161 3161 3161 3161 3161 3162 3164 3165 3166 3168 3170 3171 3171 3172 3173 3169 3167 3166 3167 3169 3165 3159 3159 3161 3161 3162 3163 3164 3167 3169 3171 3173 3176 3179 3182 3183
3160 3160 3160 3160 3160 3160 3161 3161 3161 3162 3163 3164 3164 3165 3165 3165 3165 3166 3166 3166 3166 3165 3165 3165 3165 3165 3165 3166 3165 3165 3165 3165 3165 3165 3165 3165 3164 3164 3164 3164 3164 3163 3163 3163 3163 3163 3162 3162 3161 3161 3161 3161 3160 3160 3160 3160 3161 3162 3163 3164 3165 3167 3169 3171 3171 3172 3172 3167 3165 3166 3166 3169 3166 3158 3157 3159 3159 3161 3162 3163 3164 3166 3168 3170 3173 3176 3179 3181
3160 3159 3159 3159 3159 3159 3160 3160 3161 3162 3163 3164 3164 3164 3165 3165 3165 3165 3165 3165 3165 3165 3165 3165 3165 3165 3165 3165 3165 3165 3165 3165 3165 3165 3164 3164 3164 3164 3164 3164 3164 3163 3163 3163 3163 3163 3162 3162 3161 3161 3161 3160 3160 3160 3160 3160 3160 3161 3162 3163 3164 3167 3170 3172 3171 3171 3169 3165 3165 3166 3166 3167 3162 3157 3157 3158 3158 3159 3160 3161 3162 3164 3165 3168 3170 3173 3176 3179
3159 3159 3158 3158 3158 3159 3159 3160 3160 3161 3162 3163 3164 3164 3164 3164 3165 3165 3165 3165 3165 3165 3164 3164 3164 3164 3165 3165 3165 3165 3165 3165 3165 3165 3164 3164 3164 3164 3164 3164 3163 3163 3163 3162 3162 3162 3162 3161 3161 3161 3161 3160 3160 3159 3159 3159 3159 3159 3160 3161 3162 3165 3170 3173 3172 3170 3167 3164 3164 3165 3166 3164 3159 3157 3158 3157 3157 3158 3158 3158 3160 3161 3163 3165 3167 3171 3174 3177
3158 3158 3158 3158 3158 3158 3158 3159 3159 3160 3162 3163 3163 3163 3164 3164 3164 3164 3164 3164 3164 3164 3164 3164 3164 3164 3165 3165 3165 3165 3165 3165 3165 3164 3164 3164 3164 3164 3164 3164 3163 3163 3162 3162 3162 3161 3161 3161 3161 3161 3160 3160 3159 3159 3158 3158 3157 3158 3159 3160 3160 3161 3166 3170 3170 3167 3164 3163 3163 3165 3164 3160 3157 3157 3157 3156 3157 3157 3156 3157 3157 3159 3160 3162 3164 3168 3171 3174
3157 3157 3157 3157 3157 3157 3157 3158 3159 3160 3161 3162 3162 3163 3163 3163 3164 3164 3164 3164 3164 3164 3164 3164 3164 3164 3164 3165 3165 3165 3165 3165 3165 3164 3164 3164 3164 3164 3164 3164 3163 3163 3163 3162 3162 3162 3162 3162 3161 3161 3160 3159 3158 3158 3157 3157 3157 3158 3158 3160 3160 3160 3162 3165 3166 3164 3162 3162 3163 3162 3159 3156 3156 3157 3156 3155 3155 3155 3155 3155 3155 3157 3158 3159 3161 3163 3167 3171
3156 3156 3156 3156 3156 3156 3156 3157 3158 3159 3160 3161 3161 3162 3162 3163 3163 3163 3163 3163 3163 3163 3163 3163 3164 3164 3164 3164 3164 3165 3165 3165 3165 3164 3164 3164 3164 3164 3164 3164 3164 3163 3163 3162 3162 3162 3162 3162 3162 3161 3160 3159 3158 3157 3156 3156 3157 3158 3158 3159 3160 3160 3161 3162 3163 3163 3161 3161 3160 3159 3156 3154 3155 3155 3154 3154 3153 3153 3154 3154 3154 3155 3156 3157 3158 3160 3163 3167
3156 3155 3155 3155 3155 3155 3155 3156 3157 3158 3159 3160 3160 3161 3162 3162 3162 3162 3162 3163 3163 3163 3163 3163 3164 3164 3164 3164 3164 3164 3164 3165 3164 3164 3165 3165 3165 3165 3164 3164 3164 3164 3163 3163 3162 3162 3162 3162 3161 3161 3160 3159 3158 3158 3157 3156 3156 3157 3157 3158 3159 3160 3160 3160 3161 3162 3160 3159 3159 3157 3155 3154 3155 3154 3153 3153 3153 3152 3153 3153 3153 3153 3154 3156 3156 3158 3160 3164
3155 3155 3154 3154 3154 3154 3155 3155 3156 3157 3158 3159 3159 3160 3161 3161 3162 3162 3162 3162 3162 3163 3163 3163 3163 3163 3164 3164 3164 3164 3164 3164 3164 3164 3164 3164 3165 3165 3164 3164 3164 3164 3163 3163 3162 3162 3161 3161 3161 3160 3160 3159 3159 3158 3158 3157 3156 3156 3157 3157 3158 3159 3158 3158 3159 3159 3160 3160 3158 3155 3154 3154 3155 3153 3152 3151 3152 3152 3152 3152 3151 3151 3153 3154 3154 3154 3157 3161
3153 3153 3153 3153 3153 3153 3154 3154 3155 3156 3157 3158 3158 3159 3160 3160 3160 3161 3161 3161 3162 3162 3162 3162 3163 3163 3163 3163 3163 3163 3164 3164 3164 3164 3164 3164 3164 3164 3164 3164 3164 3163 3163 3163 3162 3162 3161 3160 3160 3159 3159 3159 3158 3158 3158 3157 3157 3157 3157 3156 3156 3157 3157 3157 3158 3158 3159 3160 3159 3156 3154 3154 3154 3153 3152 3152 3152 3151 3151 3151 3150 3150 3151 3154 3154 3153 3155 3159
3152 3152 3152 3152 3152 3152 3153 3153 3154 3155 3155 3156 3157 3158 3158 3159 3160 3160 3160 3160 3161 3161 3161 3162 3162 3162 3162 3163 3163 3163 3163 3163 3163 3163 3163 3163 3164 3164 3164 3164 3164 3163 3163 3163 3162 3162 3161 3160 3159 3158 3158 3158 3158 3158 3157 3157 3157 3157 3157 3156 3156 3156 3156 3156 3157 3157 3158 3159 3159 3158 3156 3154 3155 3154 3153 3153 3152 3151 3151 3150 3149 3149 3150 3153 3155 3154 3156 3159
3151 3151 3151 3151 3151 3151 3152 3152 3153 3153 3154 3155 3156 3156 3157 3158 3159 3159 3159 3159 3160 3160 3161 3161 3161 3162 3162 3162 3162 3162 3162 3162 3162 3162 3162 3163 3163 3163 3163 3163 3163 3163 3163 3162 3162 3161 3161 3160 3159 3158 3157 3157 3157 3157 3156 3156 3157 3157 3157 3156 3155 3155 3155 3155 3156 3156 3158 3158 3158 3158 3158 3156 3155 3155 3154 3153 3152 3151 3151 3150 3149 3149 3149 3151 3154 3156 3157 3159
3149 3149 3150 3150 3150 3150 3151 3151 3151 3152 3153 3153 3154 3155 3156 3156 3157 3158 3158 3158 3159 3159 3160 3160 3160 3161 3161 3161 3161 3161 3161 3161 3161 3162 3162 3162 3162 3162 3162 3162 3162 3162 3162 3162 3161 3161 3161 3160 3159 3158 3157 3157 3156 3156 3156 3156 3156 3156 3157 3156 3156 3155 3155 3155 3155 3155 3157 3158 3157 3158 3158 3156 3155 3155 3155 3154 3152 3151 3151 3150 3149 3149 3149 3151 3153 3156 3158 3159
3147 3148 3148 3148 3149 3149 3149 3150 3150 3151 3151 3152 3153 3154 3154 3155 3156 3156 3157 3157 3157 3158 3159 3159 3159 3160 3160 3160 3160 3160 3160 3160 3160 3161 3161 3161 3161 3161 3161 3162 3161 3161 3162 3161 3161 3161 3160 3160 3159 3158 3157 3157 3156 3156 3155 3155 3155 3156 3156 3156 3156 3155 3154 3154 3155 3155 3156 3157 3157 3157 3157 3156 3155 3155 3155 3154 3153 3152 3151 3150 3149 3150 3150 3151 3153 3155 3157 3159
3145 3146 3146 3147 3147 3148 3148 3148 3149 3149 3150 3150 3151 3152 3153 3153 3154 3155 3155 3156 3156 3157 3157 3158 3158 3159 3159 3159 3160 3159 3159 3159 3159 3160 3160 3160 3160 3160 3161 3161 3161 3161 3161 3161 3160 3160 3160 3159 3159 3158 3157 3157 3157 3156 3156 3155 3155 3155 3156 3156 3156 3155 3154 3154 3154 3155 3156 3156 3156 3156 3155 3155 3155 3155 3155 3154 3153 3152 3151 3150 3150 3150 3150 3151 3153 3155 3157 3159
3143 3144 3144 3145 3145 3145 3146 3146 3147 3148 3148 3149 3150 3151 3151 3152 3152 3153 3154 3154 3155 3155 3156 3157 3157 3158 3158 3158 3158 3158 3158 3159 3159 3159 3159 3159 3159 3159 3159 3160 3160 3159 3159 3159 3159 3159 3159 3159 3159 3158 3157 3157 3157 3156 3155 3155 3155 3155 3155 3155 3155 3155 3154 3154 3155 3155 3156 3155 3155 3154 3153 3154 3155 3155 3155 3154 3153 3152 3152 3151 3150 3150 3150 3151 3153 3155 3156 3158
3141 3141 3141 3142 3143 3143 3144 3144 3145 3146 3147 3147 3148 3149 3150 3150 3151 3151 3152 3152 3153 3154 3154 3155 3156 3156 3157 3157 3157 3157 3157 3158 3158 3158 3158 3158 3158 3158 3158 3158 3158 3158 3158 3158 3158 3158 3157 3157 3157 3157 3157 3156 3156 3155 3154 3154 3154 3154 3154 3154 3155 3154 3154 3154 3155 3156 3155 3155 3154 3152 3152 3154 3155 3155 3154 3154 3153 3152 3152 3151 3151 3150 3151 3152 3153 3154 3156 3157
3139 3139 3139 3140 3140 3140 3141 3142 3143 3143 3144 3145 3146 3147 3148 3149 3149 3150 3150 3151 3151 3152 3153 3153 3154 3155 3155 3156 3156 3156 3156 3157 3157 3157 3157 3157 3157 3157 3157 3157 3157 3156 3156 3156 3156 3156 3156 3156 3156 3156 3156 3155 3154 3154 3153 3153 3153 3153 3153 3153 3153 3153 3153 3153 3154 3155 3155 3154 3153 3152 3151 3153 3155 3154 3153 3153 3152 3151 3151 3151 3151 3151 3151 3152 3153 3154 3155 3156
3136 3136 3136 3137 3138 3138 3138 3139 3140 3141 3142 3143 3144 3145 3146 3147 3147 3148 3149 3149 3149 3150 3151 3152 3152 3153 3154 3155 3155 3155 3155 3156 3156 3156 3156 3156 3156 3156 3156 3156 3155 3155 3154 3155 3155 3155 3155 3155 3155 3155 3155 3154 3154 3153 3152 3152 3152 3152 3152 3152 3151 3151 3151 3152 3153 3154 3154 3153 3152 3151 3150 3152 3154 3154 3152 3152 3151 3150 3150 3150 3150 3150 3151 3152 3153 3154 3155 3156
3133 3134 3134 3134 3135 3135 3136 3137 3137 3138 3139 3140 3141 3142 3144 3144 3145 3146 3147 3147 3148 3148 3149 3150 3151 3152 3153 3153 3154 3154 3154 3154 3154 3155 3155 3155 3155 3155 3155 3155 3154 3154 3153 3154 3154 3154 3154 3154 3154 3154 3154 3153 3153 3152 3151 3151 3151 3151 3150 3150 3150 3150 3150 3151 3152 3153 3154 3152 3151 3151 3150 3151 3152 3152 3151 3151 3150 3149 3149 3149 3149 3149 3150 3151 3153 3154 3156 3157
3130 3131 3131 3132 3133 3133 3134 3134 3135 3136 3137 3138 3139 3140 3141 3142 3143 3144 3144 3145 3146 3147 3147 3148 3149 3150 3151 3152 3152 3152 3153 3153 3153 3154 3154 3154 3154 3154 3154 3154 3153 3153 3153 3153 3153 3154 3154 3154 3154 3153 3153 3153 3152 3152 3151 3151 3150 3150 3150 3149 3149 3149 3149 3149 3151 3152 3153 3152 3151 3151 3150 3149 3150 3151 3151 3151 3150 3148 3148 3148 3148 3149 3150 3151 3153 3154 3155 3157
3128 3129 3129 3130 3130 3131 3132 3132 3133 3134 3135 3135 3136 3137 3139 3140 3141 3142 3143 3143 3144 3145 3146 3147 3148 3149 3149 3150 3151 3151 3151 3152 3152 3153 3153 3153 3152 3152 3153 3153 3153 3153 3152 3153 3153 3153 3153 3153 3153 3153 3153 3152 3152 3151 3151 3150 3150 3149 3149 3148 3148 3148 3148 3149 3149 3151 3152 3151 3150 3150 3149 3149 3149 3150 3150 3152 3152 3150 3148 3147 3147 3148 3149 3151 3152 3154 3155 3156
3126 3126 3127 3128 3128 3129 3129 3130 3131 3131 3132 3133 3134 3135 3136 3138 3138 3140 3141 3142 3142 3143 3143 3145 3146 3146 3147 3148 3149 3150 3150 3151 3151 3151 3151 3151 3151 3151 3152 3152 3152 3152 3152 3152 3152 3153 3152 3152 3153 3153 3152 3152 3151 3151 3150 3150 3150 3148 3147 3147 3147 3147 3147 3148 3148 3149 3150 3150 3150 3149 3149 3148 3149 3149 3149 3151 3152 3150 3148 3148 3148 3148 3149 3150 3151 3153 3154 3154